Change the Weather History Date:

Saturday, February 23, 2013

  Actual Average Record
Temperature  
Mean Temperature 14 °F -  
Max Temperature 30 °F 43 °F 70 °F (1982)
Min Temperature -2 °F 19 °F -11 °F (1989)
Degree Days  
Heating Degree Days 51    
Moisture  
Dew Point 7 °F    
Average Humidity 81    
Maximum Humidity 100    
Minimum Humidity 68    
Precipitation  
Precipitation 0.04 in - - ()
Sea Level Pressure  
Sea Level Pressure 29.93 in    
Wind  
Wind Speed 6 mph (SSE)    
Max Wind Speed 12 mph    
Max Gust Speed -    
Visibility 2 miles    
Events Fog    
Averages and records for this station are not official NWS values.
T = Trace of Precipitation, MM = Missing Value Source: NWS Daily Summary

Daily Weather History Graph

Daily Weather History Graph

Search for Another Location

Airport or City:

Trip Planner

Search our weather history database for the weather conditions in past years. The results will help you decide how hot, cold, wet, or windy it might be!

Date:

Astronomy

Feb. 23, 2013 Rise Set
Actual Time 7:08 AM CST 6:08 PM CST
Civil Twilight 6:40 AM CST 6:36 PM CST
Nautical Twilight 6:07 AM CST 7:08 PM CST
Astronomical Twilight 5:35 AM CST 7:40 PM CST
Moon 4:18 PM CST (2/23) 5:32 AM CST (2/23)
Length of Visible Light 11h 56m
Length of Day
10h 59m
Waxing Gibbous, 95% of the Moon is Illuminated
Feb 23
Waxing Gibbous
Feb 25
Full
Mar 4
Last Quarter
Mar 11
New
Mar 19
First Quarter

Hourly Weather History & Observations

Time (CST) Temp. Windchill Dew Point Humidity Pressure Visibility Wind Dir Wind Speed Gust Speed Precip Events Conditions
12:54 AM 10.0 °F 3.6 °F 6.1 °F 84% 30.04 in 6.0 mi WSW 3.5 mph - N/A   Clear
1:54 AM -0.9 °F -12.7 °F -2.9 °F 91% 30.04 in 3.0 mi SSE 5.8 mph - N/A   Clear
2:32 AM 1.4 °F -11.3 °F -0.4 °F 92% 29.99 in 2.5 mi SE 6.9 mph - N/A   Clear
2:46 AM 1.4 °F -8.3 °F -0.4 °F 92% 29.98 in 1.2 mi SSE 4.6 mph - N/A   Clear
2:54 AM 1.0 °F -10.3 °F -0.9 °F 91% 30.03 in 1.0 mi SSE 5.8 mph - N/A   Clear
3:01 AM -0.4 °F -13.4 °F -0.4 °F 100% 29.97 in 0.2 mi SSE 6.9 mph - N/A Fog Light Freezing Fog
3:54 AM 1.9 °F -10.6 °F -0.9 °F 88% 30.01 in 1.5 mi South 6.9 mph - N/A   Clear
4:08 AM -0.4 °F -14.7 °F -5.8 °F 78% 29.95 in 2.0 mi South 8.1 mph - N/A   Haze
4:30 AM -0.4 °F -13.4 °F -5.8 °F 78% 29.95 in 3.0 mi South 6.9 mph - N/A   Haze
4:39 AM -0.4 °F -12.0 °F -5.8 °F 78% 29.95 in 2.0 mi South 5.8 mph - N/A   Haze
4:54 AM -2.0 °F -15.4 °F -6.0 °F 83% 30.00 in 3.0 mi SSE 6.9 mph - N/A   Clear
5:14 AM -0.4 °F -13.4 °F -7.6 °F 72% 29.94 in 2.5 mi SSE 6.9 mph - N/A   Haze
5:40 AM -0.4 °F -14.7 °F -5.8 °F 78% 29.94 in 1.5 mi SSE 8.1 mph - N/A   Haze
5:54 AM -0.9 °F -14.1 °F -7.1 °F 75% 30.00 in 1.0 mi SSE 6.9 mph - N/A   Haze
6:54 AM -0.0 °F -9.9 °F -6.0 °F 76% 29.99 in 1.2 mi SSE 4.6 mph - N/A   Haze
7:13 AM -0.4 °F -10.4 °F -5.8 °F 78% 29.93 in 0.8 mi SSE 4.6 mph - N/A   Haze
7:54 AM 1.9 °F -7.6 °F -5.1 °F 72% 29.99 in 0.2 mi SSE 4.6 mph - N/A   Haze
8:19 AM 3.2 °F -7.8 °F -2.2 °F 78% 29.92 in 1.2 mi SSE 5.8 mph - N/A   Haze
8:54 AM 7.0 °F - 1.0 °F 77% 29.97 in 1.8 mi Calm Calm - N/A   Haze
9:54 AM 14.0 °F 6.5 °F 7.0 °F 74% 29.96 in 1.8 mi South 4.6 mph - N/A   Haze
10:17 AM 12.2 °F 6.1 °F 8.6 °F 85% 29.92 in 2.0 mi South 3.5 mph - N/A   Haze
10:54 AM 19.0 °F 10.0 °F 10.0 °F 68% 29.96 in 2.0 mi SSE 6.9 mph - N/A   Haze
11:13 AM 19.4 °F 7.9 °F 12.2 °F 74% 29.91 in 3.0 mi South 10.4 mph - N/A   Haze
11:54 AM 19.9 °F 9.3 °F 14.0 °F 78% 29.95 in 3.0 mi South 9.2 mph - N/A   Haze
12:54 PM 23.0 °F 12.4 °F 16.0 °F 74% 29.92 in 4.0 mi South 10.4 mph - N/A   Haze
1:54 PM 26.1 °F 16.2 °F 19.0 °F 75% 29.91 in 4.0 mi SSW 10.4 mph - 0.02 in   Haze
2:54 PM 28.9 °F 21.1 °F 21.0 °F 72% 29.89 in 4.0 mi South 8.1 mph - 0.02 in   Haze
3:54 PM 30.0 °F 23.2 °F 23.0 °F 75% 29.87 in 3.0 mi South 6.9 mph - N/A   Haze
4:54 PM 28.9 °F 19.2 °F 23.0 °F 78% 29.86 in 3.0 mi SSE 11.5 mph - N/A   Haze
5:54 PM 25.0 °F 16.3 °F 19.0 °F 78% 29.87 in 3.0 mi South 8.1 mph - N/A   Haze
6:54 PM 21.9 °F 15.7 °F 17.1 °F 82% 29.89 in 4.0 mi South 4.6 mph - N/A   Haze
7:54 PM 19.0 °F 10.0 °F 16.0 °F 88% 29.89 in 3.0 mi South 6.9 mph - N/A   Clear
8:07 PM 15.8 °F 6.1 °F 12.2 °F 86% 29.84 in 2.5 mi SSE 6.9 mph - N/A   Clear
8:36 PM 15.8 °F 6.1 °F 12.2 °F 86% 29.85 in 1.5 mi SE 6.9 mph - N/A   Clear
8:51 PM 15.8 °F 5.1 °F 12.2 °F 86% 29.86 in 2.0 mi SSE 8.1 mph - N/A   Clear
8:54 PM 15.1 °F 4.2 °F 12.0 °F 88% 29.91 in 2.0 mi SE 8.1 mph - N/A   Clear
9:34 PM 15.8 °F - 12.2 °F 86% 29.86 in 1.5 mi Calm Calm - N/A   Clear
9:45 PM 15.8 °F 10.2 °F 12.2 °F 86% 29.87 in 0.2 mi South 3.5 mph - N/A Fog Light Freezing Fog
9:54 PM 15.1 °F 9.4 °F 12.9 °F 91% 29.91 in 0.2 mi SSE 3.5 mph - N/A Fog Light Freezing Fog
10:54 PM 18.0 °F 11.1 °F 14.0 °F 84% 29.92 in 0.2 mi ESE 4.6 mph - N/A Fog Light Freezing Fog
11:22 PM 15.8 °F - 10.4 °F 79% 29.88 in 0.5 mi Calm Calm - N/A   Haze
11:34 PM 15.8 °F - 12.2 °F 86% 29.88 in 0.2 mi Calm Calm - N/A Fog Light Freezing Fog
11:42 PM 17.6 °F - 12.2 °F 79% 29.88 in 0.2 mi Calm Calm - N/A Fog Light Freezing Fog
11:54 PM 18.0 °F - 14.0 °F 84% 29.92 in 0.2 mi Calm Calm - N/A Fog Light Freezing Fog